Location: OLV Amersfoort
(52.1552°N, 5.3872°E)
Time: 21:12:04
(UTC+02:00)

ISS - Pass Details

Date: 27 March 2023
Orbit: 412 x 419 km, 51.6° (Epoch: 01 June)

Event Time Altitude Azimuth Distance (km) Brightness Sun altitude
Rises 22:06:27 0° 282° (WNW) 2,377 1.4 -18.6°
Reaches altitude 10° 22:08:39 10° 274° (W) 1,505 0.0 -18.9°
Maximum altitude 22:11:46 36° 206° (SSW) 681 -2.8 -19.3°
Enters shadow 22:11:49 36° 204° (SSW) 682 -2.8 -19.3°
